EW3888 Bahia Azul ES current weather conditions

sailwx.info

Wind from 323 at 11 knots

Last reported at 2019-Dec-13 01:31 UTC.
Time now 2019-Dec-13 02:22 UTC

Location: N 39°26' E 002°45'.
View on Google Maps.

See reports from other nearby stations

  
Tides and Currents Weather Stations Pressure Air Temp Water Temp Dewpoint Dewpoint Depression Visibility Wind Speed Wind Dir Waves Ship Positions
date/time (UTC)wind fromknots sea level pressurealtimeterstation pressurevisibilityair tempwater tempwave heightnotes
2019-Dec-13 01:31 323 11
2019-Dec-13 01:15 281 11
2019-Dec-13 00:32 283 14
2019-Dec-12 23:48 276 14
2019-Dec-12 23:30 272 18
2019-Dec-12 22:31 271 17
2019-Dec-12 21:46 284 16
2019-Dec-12 21:30 282 14
2019-Dec-12 20:46 262 16
2019-Dec-12 20:01 258 13
2019-Dec-12 19:45 279 14
2019-Dec-12 19:01 250 12
2019-Dec-12 18:18 274 11
2019-Dec-12 18:01 258 12
2019-Dec-12 17:17 252 12
2019-Dec-12 16:15 242 9
2019-Dec-12 15:31 263 8
2019-Dec-12 14:31 257 7
2019-Dec-12 13:46 279 8
2019-Dec-12 13:30 250 8
2019-Dec-12 12:46 272 10
2019-Dec-12 12:03 298 10
2019-Dec-12 11:45 283 9
2019-Dec-12 11:01 286 9
2019-Dec-12 10:00 267 8
2019-Dec-12 09:18 300 6
2019-Dec-12 08:16 331 6
2019-Dec-12 07:32 311 7
2019-Dec-12 06:31 335 6
2019-Dec-12 05:48 306 8
2019-Dec-12 05:31 324 8
2019-Dec-12 04:46 290 6
2019-Dec-12 03:45 319 8
2019-Dec-12 02:20 293 2
2019-Dec-12 02:01 320 4
2019-Dec-12 01:16 266 8
2019-Dec-12 00:16 323 9
2019-Dec-11 23:31 309 6
2019-Dec-11 22:30 350 5
2019-Dec-11 21:46 321 6
2019-Dec-11 21:30 322 5
2019-Dec-11 20:46 329 8
2019-Dec-11 20:01 355 6
2019-Dec-11 19:45 350 9
2019-Dec-11 19:01 331 12
2019-Dec-11 18:00 346 9
2019-Dec-11 17:17 360 10
2019-Dec-11 16:16 279 6
2019-Dec-11 15:31 289 7
2019-Dec-11 15:15 285 6
2019-Dec-11 14:31 274 7
2019-Dec-11 13:48 253 6
2019-Dec-11 13:30 247 5
2019-Dec-11 12:47 252 6
2019-Dec-11 11:46 255 5
2019-Dec-11 11:01 298 4
2019-Dec-11 10:01 298 3
2019-Dec-11 09:17 298 1
2019-Dec-11 09:00 298 1
2019-Dec-11 08:16 298 1
2019-Dec-11 07:31 298 1
2019-Dec-11 07:15 298 1
2019-Dec-11 06:32 298 0
2019-Dec-11 05:31 298 2
2019-Dec-11 04:47 298
2019-Dec-11 04:30 298
2019-Dec-11 03:45 298
2019-Dec-11 03:02 298
2019-Dec-11 02:45 298
2019-Dec-11 02:02 298